sat.trackr.live / text

‹ back to catalog

UNKNOWN

NORAD 89184

UNKNOWN UNKNOWN UNKNOWN

§ Identity

Operator
Country
Launch date
Launch site
Launch vehicle
Mass (kg)
RCS (m²)

External: N2YO · Heavens-Above

§ Orbital elements

Epoch: 2026-05-23T22:00:36.925920Z

Period
96.66 min
Inclination
98.3783°
Eccentricity
0.0008204
Mean motion
14.89815198 rev/d
Perigee alt
592.8 km
Apogee alt
604.2 km
Semi-major
6,976.6 km
B*
1.9169e-3
RAAN
22.2821°
Arg perigee
342.8923°
Mean anomaly
17.2015°
Rev number
51,625

§ Raw data

UNKNOWN1 89184U          26143.91709405  .00018391  00000+0  19169-2 0  99902 89184  98.3783  22.2821 0008204 342.8923  17.2015 14.89815198516251

JSON: /api/v1/satellites/89184 · /tle

For live sub-satellite position, see the globe view (requires WebGL).

§ Visibility from observer

Set your observer location to see the next 7 days of passes ≥ 10°. The values pass through the URL so the page stays shareable.

No JS? Fill the form by hand. The geolocation button needs JavaScript.